Dauntless Aviation
Airports North America Canada
CYLW
YLW

Kelowna International Airport

Kelowna, CANADA

Airport Info
Suggest Updated Information for this Airport

Location

Latitude / Longitude: 49°57'21"N / 119°22'40"W
  49°57.366'N / 119°22.68'W
  49.9561 / -119.3780

Nearby radio navigation aids

EX RUTLAND NDB. 335.5° 1.0nm from EX to field.
LW KELOWNA NDB. 147.1° 6.5nm from LW to field.

Runway Information

Runway 16 /34

Dimensions: 7300 x 200 ft.
Surface: ASP
 
Runway 16
Runway 34
Latitude: 49.966 49.946278
Longitude: -119.378961 -119.376461
Elevation: 1409 ft. 1409 ft.
Runway true heading: 166.6 346.6
 

Instrument Procedures

  Airport Diagram
  Parking Areas (Apron 1)
  Parking Areas (Apron 3)
Satellite photo at:
Airport distance calculator
From:
Weather Reports

METAR

CYLW

CYLW 202300Z AUTO 34007KT 9SM CLR 15/05 A3015 RMK SLP220
CWJV
17.4nm N
CWJV 202300Z AUTO 29002KT 15/04 RMK AO1 SLP219 T01490036 56015
CWUS
25.6nm S
CWUS 202300Z AUTO 07001KT 14/05 RMK AO1 SLP213 T01380048 56020
CYYF
30.4nm S
CYYF 202300Z 35010KT 15SM SCT240 14/05 A3014 RMK CI3 SLP214

TAF

CYLW
TAF CYLW 201838Z 2019/2107 VRB03KT P6SM SKC BECMG 2021/2023 35008KT RMK FCST BASED ON AUTO OBS. NXT FCST BY 210100Z
CYYF
30.4nm S
TAF CYYF 201838Z 2019/2107 VRB03KT P6SM SKC BECMG 2020/2022 35008KT RMK NXT FCST BY 210100Z
Safelog

 

Dauntless Aviation

© 2007-2018 Dauntless Aviation, all rights reserved
Information provided via PilotNav comes from a variety of official and unofficial data sources. As errors are possible, do not use PilotNav for primary flight planning purposes. Verify any information that you receive via PilotNav with current and canonical charts and other official documents. The material in this database is subject to database copyrights held by Dauntless Aviation and may not be copied without the express permission of Dauntless Aviation - licenses for use of part of all of this data are available for purchase; enquire via the Dauntless Aviation helpdesk. A number of mechanisms and markers exist in the database to protect against and identify infringement / copyright. Automated queries against this website are stictly prohibited, and all activity is logged and analyzed.